Flag for USA Past Weather in Kykotsmovi Village, Hopi, Arizona, USA — Yesterday and Last 2 Weeks

Now
73 °F

Clear.


Feels Like: 77 °F
Forecast: 67 / 90 °F
Wind: 5 mph from East

Location: Winslow Municipal Airport

Current Time: Jun 28, 2016 at 2:41:04 AM

Latest Report: Jun 28, 2016 at 1:56 AM


Visibility: 10 mi

Pressure: 29.93 "Hg (24.52 "Hg at 1727m altitude)

Humidity: 36%

Dew Point: 44 °F

Location of Kykotsmovi Village, HopiLocation

Past Weather in Kykotsmovi Village, Hopi — Graph

°F

Kykotsmovi Village, Hopi Temperature Yesterday

Maximum temperature yesterday: 98 °F (at 2:56 PM)
Minimum temperature yesterday: 67 °F (at 3:56 AM)
Average temperature yesterday: 83 °F

High & Low Weather Summary for the Past Weeks

 TemperatureHumidityPressure
High106 °F (Jun 20, 4:56 PM)49% (Jun 27, 4:56 AM)30.10 "Hg (Jun 27, 4:56 AM)
Low48 °F (Jun 17, 4:56 AM)5% (Jun 18, 12:56 PM)29.70 "Hg (Jun 24, 5:56 PM)
Average80 °F18%29.88 "Hg
* Reported Jun 13 12:56 AM — Jun 28 12:56 AM, Kykotsmovi Village, Hopi, Weather by CustomWeather, © 2016

Note: Actual official high and low records may vary slightly from our data, if they occured in-between our weather recording intervals... More about our weather records

Advertising

Kykotsmovi Village, Hopi Weather History for the Previous 24 Hours

Scroll right to see more
 ConditionsComfort  
Time TempWeatherWind HumidityBarometerVisibility
12:56 AM
Tue, Jun 28
75 °FClear.6 mph31%29.90 "Hg10 mi
11:56 PM
Mon, Jun 27
77 °FClear.No wind29%29.92 "Hg10 mi
10:56 PM79 °FClear.5 mph27%29.92 "Hg10 mi
9:56 PM80 °FClear.13 mph27%29.91 "Hg10 mi
8:56 PM83 °FClear.6 mph24%29.92 "Hg10 mi
7:56 PM86 °FClear.6 mph20%29.90 "Hg10 mi
6:56 PM88 °FSunny.13 mph19%29.89 "Hg10 mi
5:56 PM90 °FPartly sunny.13 mph19%29.92 "Hg10 mi
4:56 PM92 °FSunny.17 mph17%29.88 "Hg10 mi
3:56 PM95 °FSunny.7 mph14%29.86 "Hg10 mi
2:56 PM98 °FSunny.13 mph12%29.88 "Hg10 mi
1:56 PM96 °FSunny.7 mph15%29.90 "Hg10 mi
12:56 PM97 °FSunny.6 mph15%29.93 "Hg10 mi
11:56 AM94 °FSunny.7 mph17%29.96 "Hg10 mi
10:56 AM91 °FSunny.6 mph21%29.98 "Hg10 mi
9:56 AM88 °FSunny.9 mph24%30.00 "Hg10 mi
8:56 AM82 °FSunny.9 mph31%30.01 "Hg10 mi
7:56 AM78 °FSunny.8 mph35%30.02 "Hg10 mi
6:56 AM73 °FSunny.7 mph40%30.02 "Hg10 mi
5:56 AM69 °FSunny.10 mph44%30.00 "Hg10 mi
4:56 AM67 °FClear.5 mph49%29.98 "Hg10 mi
3:56 AM67 °FClear.5 mph47%29.96 "Hg10 mi
2:56 AM70 °FClear.5 mph44%29.96 "Hg10 mi
Weather by CustomWeather, © 2016

See weather overviewHow to use our weather pages